Simultaneous Nadir Overpasses (SNOs) Predictions

Prediction of SNOs between METOP-A and TERRA Satellite Orbit:

Table of predicted SNOs for the next 14.0 days since TLE Epoch: 9/30/2017
Index Date (METOP-A) Time (METOP-A) Lat,Lon (METOP-A) SZA (METOP-A ) Date (TERRA) Time (TERRA) Lat,Lon (TERRA) SZA (TERRA ) Distance(km) Time Diff (sec)
1 10/01/2017 20:46:53 81.36, -83.99 87.96 10/01/2017 20:47:51 81.35, -83.96 87.99 0.70 58
2 10/01/2017 21:37:32 -81.36, 83.95 91.96 10/01/2017 21:37:17 -81.37, 84.02 91.95 1.40 15
3 10/04/2017 16:21:11 81.36, -17.36 89.09 10/04/2017 16:22:04 81.35, -17.55 89.09 3.19 53
4 10/04/2017 17:11:50 -81.36, 150.59 90.83 10/04/2017 17:11:30 -81.37, 150.45 90.85 2.44 20
5 10/07/2017 11:55:30 81.36, 49.25 90.21 10/07/2017 11:56:17 81.37, 49.18 90.23 1.25 47
6 10/07/2017 12:46:10 -81.36,-143.19 89.75 10/07/2017 12:45:44 -81.36,-143.19 89.77 0.31 26
7 10/10/2017 07:29:50 81.36, 115.44 91.27 10/10/2017 07:30:31 81.36, 115.46 91.29 0.32 41
8 10/10/2017 08:20:30 -81.36, -76.98 88.69 10/10/2017 08:19:58 -81.36, -76.90 88.70 1.38 32
9 10/13/2017 03:04:08 81.36,-177.99 92.36 10/13/2017 03:04:43 81.36,-177.95 92.38 0.94 35




NCC Satellite Simultaneous Nadir Overpasses (SNOs) Prediction Service
